CCA8568 ZSWZ-ZSPD

Flight info

Callsign CCA8568
Flight time 0h 55m
Altitude 18700
Route REMIM5X REMIM B221 SHZ W58 XSY
Aircraft A321/M-SDE3FGHIRWY/LB1

Departure

Time 2026-05-06 01:48
Airport Wenzhou Longwan International Airport (ZSWZ)

Arrival

Time 2026-05-06 02:44
Airport Shanghai Pudong International Airport (ZSPD)
Time Latitude Longitude Altitude Speed Heading
2026-05-06 01:44 27.90398 120.84480 15 ft 8 kts 118°
2026-05-06 01:44 27.90370 120.84539 15 ft 10 kts 120°
2026-05-06 01:44 27.90325 120.84590 15 ft 9 kts 172°
2026-05-06 01:45 27.90263 120.84561 15 ft 10 kts 207°
2026-05-06 01:45 27.90194 120.84520 15 ft 12 kts 208°
2026-05-06 01:45 27.90115 120.84472 15 ft 14 kts 208°
2026-05-06 01:45 27.90026 120.84419 16 ft 15 kts 208°
2026-05-06 01:46 27.89927 120.84359 14 ft 17 kts 208°
2026-05-06 01:46 27.89816 120.84291 14 ft 19 kts 208°
2026-05-06 01:46 27.89702 120.84240 14 ft 17 kts 165°
2026-05-06 01:46 27.89644 120.84336 14 ft 14 kts 119°
2026-05-06 01:47 27.89599 120.84439 14 ft 15 kts 98°
2026-05-06 01:47 27.89676 120.84508 14 ft 18 kts 28°
2026-05-06 01:47 27.89911 120.84651 16 ft 71 kts 28°
2026-05-06 01:47 27.90538 120.85029 15 ft 130 kts 28°
2026-05-06 01:48 27.91476 120.85598 34 ft 172 kts 27°
2026-05-06 01:48 27.92525 120.86233 657 ft 166 kts 28°
2026-05-06 01:48 27.93550 120.86829 1271 ft 166 kts 28°
2026-05-06 01:48 27.94593 120.87460 1591 ft 179 kts 28°
2026-05-06 01:49 27.95754 120.88156 1787 ft 200 kts 29°
2026-05-06 01:49 27.97041 120.88937 2025 ft 218 kts 28°
2026-05-06 01:49 27.98402 120.89763 2472 ft 224 kts 28°
2026-05-06 01:49 27.99765 120.90592 3086 ft 227 kts 28°
2026-05-06 01:50 28.01164 120.91442 3758 ft 229 kts 28°
2026-05-06 01:50 28.02666 120.92028 4342 ft 232 kts
2026-05-06 01:50 28.04217 120.91618 4978 ft 232 kts 327°
2026-05-06 01:50 28.05329 120.90336 5569 ft 231 kts 297°
2026-05-06 01:51 28.06097 120.88727 6205 ft 233 kts 296°
2026-05-06 01:51 28.06862 120.87096 6780 ft 236 kts 296°
2026-05-06 01:51 28.07651 120.85460 6958 ft 237 kts 297°
2026-05-06 01:51 28.08445 120.83814 7374 ft 238 kts 297°
2026-05-06 01:52 28.09235 120.82140 7867 ft 249 kts 297°
2026-05-06 01:52 28.10083 120.80325 8169 ft 273 kts 297°
2026-05-06 01:52 28.10994 120.78380 8702 ft 284 kts 297°
2026-05-06 01:52 28.11932 120.76387 9330 ft 289 kts 297°
2026-05-06 01:53 28.12885 120.74378 10014 ft 291 kts 297°
2026-05-06 01:53 28.13858 120.72328 10368 ft 305 kts 298°
2026-05-06 01:53 28.14929 120.70166 10487 ft 325 kts 304°
2026-05-06 01:53 28.16585 120.68332 10609 ft 345 kts 327°
2026-05-06 01:54 28.18873 120.67347 10754 ft 363 kts 352°
2026-05-06 01:54 28.20828 120.67343 11053 ft 371 kts
2026-05-06 01:54 28.21277 120.67404 11148 ft 371 kts
2026-05-06 01:55 28.21574 120.67448 11214 ft 371 kts
2026-05-06 01:55 28.23521 120.67723 11613 ft 374 kts
2026-05-06 01:55 28.26120 120.68008 12212 ft 376 kts
2026-05-06 01:55 28.28739 120.68240 12796 ft 379 kts
2026-05-06 01:56 28.31377 120.68454 13399 ft 381 kts
2026-05-06 01:56 28.34030 120.68673 13945 ft 384 kts
2026-05-06 01:56 28.36705 120.68908 14456 ft 386 kts
2026-05-06 01:56 28.39387 120.69159 14959 ft 388 kts
2026-05-06 01:57 28.42079 120.69422 15453 ft 389 kts
2026-05-06 01:57 28.44785 120.69694 15948 ft 391 kts
2026-05-06 01:57 28.47498 120.69975 16430 ft 392 kts
2026-05-06 01:57 28.50221 120.70264 16913 ft 393 kts
2026-05-06 01:58 28.52949 120.70555 17389 ft 395 kts
2026-05-06 01:58 28.55691 120.70844 17855 ft 397 kts
2026-05-06 01:58 28.58448 120.71132 18310 ft 399 kts
2026-05-06 01:58 28.61216 120.71423 18647 ft 401 kts
2026-05-06 01:59 28.63960 120.71713 18743 ft 404 kts
2026-05-06 01:59 28.66798 120.72011 18771 ft 415 kts
2026-05-06 01:59 28.69693 120.72312 18768 ft 420 kts
2026-05-06 01:59 28.72604 120.72614 18765 ft 421 kts
2026-05-06 02:00 28.75525 120.72917 18766 ft 421 kts
2026-05-06 02:00 28.78440 120.73221 18767 ft 421 kts
2026-05-06 02:00 28.81365 120.73526 18767 ft 422 kts
2026-05-06 02:00 28.84286 120.73832 18765 ft 422 kts
2026-05-06 02:01 28.85811 120.73991 18760 ft 425 kts
2026-05-06 02:01 28.86561 120.74070 18772 ft 424 kts
2026-05-06 02:02 28.89517 120.74380 18787 ft 428 kts
2026-05-06 02:02 28.92490 120.74686 18794 ft 428 kts
2026-05-06 02:02 28.95457 120.74987 18794 ft 427 kts
2026-05-06 02:02 28.98411 120.75286 18791 ft 426 kts
2026-05-06 02:03 29.01364 120.75587 18785 ft 425 kts
2026-05-06 02:03 29.04306 120.75890 18786 ft 424 kts
2026-05-06 02:03 29.07245 120.76198 18786 ft 424 kts
2026-05-06 02:03 29.10184 120.76503 18781 ft 424 kts
2026-05-06 02:04 29.13123 120.76806 18773 ft 424 kts
2026-05-06 02:04 29.16026 120.77107 18772 ft 424 kts
2026-05-06 02:04 29.18969 120.77413 18770 ft 424 kts
2026-05-06 02:04 29.21909 120.77717 18767 ft 424 kts
2026-05-06 02:05 29.24852 120.78019 18766 ft 424 kts
2026-05-06 02:05 29.27795 120.78320 18766 ft 425 kts
2026-05-06 02:05 29.30740 120.78621 18769 ft 425 kts
2026-05-06 02:05 29.33683 120.78925 18763 ft 423 kts
2026-05-06 02:06 29.36576 120.79215 18730 ft 411 kts
2026-05-06 02:06 29.39391 120.79486 18744 ft 402 kts
2026-05-06 02:06 29.42118 120.79751 18744 ft 383 kts
2026-05-06 02:06 29.44700 120.80023 18744 ft 363 kts
2026-05-06 02:07 29.47156 120.80290 18744 ft 346 kts
2026-05-06 02:07 29.49512 120.80544 18744 ft 335 kts
2026-05-06 02:07 29.51775 120.80787 18738 ft 319 kts
2026-05-06 02:07 29.53930 120.81021 18736 ft 303 kts
2026-05-06 02:08 29.55985 120.81256 18738 ft 293 kts
2026-05-06 02:08 29.57959 120.81836 18742 ft 294 kts 19°
2026-05-06 02:08 29.59789 120.82893 18733 ft 296 kts 31°
2026-05-06 02:08 29.61391 120.84390 18734 ft 299 kts 44°
2026-05-06 02:09 29.62686 120.86265 18732 ft 302 kts 54°
2026-05-06 02:09 29.63840 120.88283 18733 ft 302 kts 53°
2026-05-06 02:09 29.65006 120.90288 18731 ft 302 kts 53°
2026-05-06 02:09 29.66173 120.92295 18731 ft 302 kts 53°
2026-05-06 02:10 29.67337 120.94304 18726 ft 302 kts 53°
2026-05-06 02:10 29.68499 120.96312 18734 ft 302 kts 53°
2026-05-06 02:10 29.69660 120.98326 18732 ft 302 kts 53°
2026-05-06 02:10 29.70819 121.00340 18733 ft 302 kts 53°
2026-05-06 02:11 29.71974 121.02351 18733 ft 301 kts 53°
2026-05-06 02:11 29.73127 121.04365 18734 ft 301 kts 53°
2026-05-06 02:11 29.74264 121.06355 18739 ft 302 kts 54°
2026-05-06 02:11 29.75415 121.08371 18740 ft 302 kts 53°
2026-05-06 02:12 29.76568 121.10391 18738 ft 302 kts 54°
2026-05-06 02:12 29.77722 121.12414 18739 ft 302 kts 53°
2026-05-06 02:12 29.78875 121.14433 18740 ft 302 kts 54°
2026-05-06 02:12 29.80028 121.16454 18743 ft 303 kts 54°
2026-05-06 02:13 29.81183 121.18482 18747 ft 302 kts 54°
2026-05-06 02:13 29.82335 121.20504 18750 ft 302 kts 54°
2026-05-06 02:13 29.83491 121.22527 18751 ft 302 kts 54°
2026-05-06 02:13 29.84644 121.24545 18750 ft 301 kts 53°
2026-05-06 02:14 29.85795 121.26561 18749 ft 301 kts 53°
2026-05-06 02:14 29.86944 121.28569 18746 ft 301 kts 53°
2026-05-06 02:14 29.88134 121.30543 18747 ft 299 kts 49°
2026-05-06 02:14 29.89522 121.32404 18757 ft 316 kts 42°
2026-05-06 02:15 29.91206 121.34154 18757 ft 336 kts 35°
2026-05-06 02:15 29.93196 121.35693 18754 ft 354 kts 27°
2026-05-06 02:15 29.95425 121.37079 18749 ft 373 kts 26°
2026-05-06 02:15 29.97782 121.38538 18556 ft 396 kts 26°
2026-05-06 02:16 30.00261 121.40079 18315 ft 410 kts 26°
2026-05-06 02:16 30.02780 121.41653 18051 ft 412 kts 27°
2026-05-06 02:16 30.05298 121.43235 17789 ft 412 kts 27°
2026-05-06 02:16 30.07811 121.44820 17526 ft 411 kts 27°
2026-05-06 02:17 30.10321 121.46402 17263 ft 410 kts 27°
2026-05-06 02:17 30.12807 121.47963 16927 ft 402 kts 27°
2026-05-06 02:17 30.15248 121.49491 16459 ft 396 kts 27°
2026-05-06 02:17 30.17652 121.50998 16005 ft 390 kts 27°
2026-05-06 02:18 30.19993 121.52470 15550 ft 386 kts 27°
2026-05-06 02:18 30.22336 121.53946 15107 ft 381 kts 27°
2026-05-06 02:18 30.24653 121.55406 14638 ft 377 kts 27°
2026-05-06 02:18 30.26947 121.56858 14179 ft 374 kts 27°
2026-05-06 02:19 30.29215 121.58316 13685 ft 372 kts 28°
2026-05-06 02:19 30.31465 121.59777 13182 ft 369 kts 28°
2026-05-06 02:19 30.33700 121.61232 12675 ft 368 kts 28°
2026-05-06 02:19 30.35922 121.62681 12163 ft 366 kts 28°
2026-05-06 02:20 30.40305 121.65638 11139 ft 363 kts 30°
2026-05-06 02:20 30.42422 121.67132 10998 ft 350 kts 30°
2026-05-06 02:20 30.44455 121.68581 10886 ft 337 kts 30°
2026-05-06 02:21 30.46399 121.69969 10753 ft 318 kts 30°
2026-05-06 02:21 30.47625 121.70844 10578 ft 308 kts 30°
2026-05-06 02:21 30.49443 121.72131 10254 ft 304 kts 29°
2026-05-06 02:21 30.51840 121.73817 9951 ft 299 kts 29°
2026-05-06 02:22 30.53017 121.74645 9866 ft 299 kts 30°
2026-05-06 02:22 30.54793 121.75898 9731 ft 299 kts 30°
2026-05-06 02:22 30.56585 121.77115 9601 ft 298 kts 24°
2026-05-06 02:22 30.58524 121.77907 9472 ft 295 kts 12°
2026-05-06 02:23 30.60523 121.78448 9343 ft 295 kts 11°
2026-05-06 02:23 30.62507 121.78985 9218 ft 293 kts 12°
2026-05-06 02:23 30.64487 121.79519 9088 ft 291 kts 11°
2026-05-06 02:23 30.66450 121.80048 8958 ft 289 kts 11°
2026-05-06 02:24 30.68402 121.80577 8838 ft 287 kts 12°
2026-05-06 02:24 30.70330 121.81103 8697 ft 280 kts 12°
2026-05-06 02:24 30.72193 121.81610 8576 ft 271 kts 11°
2026-05-06 02:24 30.74023 121.82107 8442 ft 269 kts 12°
2026-05-06 02:25 30.75845 121.82604 8323 ft 269 kts 12°
2026-05-06 02:25 30.77668 121.83104 8204 ft 269 kts 12°
2026-05-06 02:25 30.79486 121.83600 8070 ft 269 kts 12°
2026-05-06 02:25 30.81301 121.84092 7949 ft 267 kts 12°
2026-05-06 02:26 30.83114 121.84583 7828 ft 268 kts 13°
2026-05-06 02:26 30.84926 121.85075 7701 ft 266 kts 13°
2026-05-06 02:26 30.86725 121.85567 7604 ft 265 kts 13°
2026-05-06 02:26 30.88523 121.86059 7476 ft 266 kts 13°
2026-05-06 02:27 30.90326 121.86555 7354 ft 266 kts 13°
2026-05-06 02:27 30.92098 121.87046 7229 ft 265 kts 15°
2026-05-06 02:27 30.93824 121.87801 7110 ft 266 kts 28°
2026-05-06 02:27 30.95419 121.88884 6993 ft 264 kts 31°
2026-05-06 02:28 30.97000 121.89968 6879 ft 264 kts 32°
2026-05-06 02:28 30.98580 121.91046 6756 ft 262 kts 31°
2026-05-06 02:28 31.00151 121.92119 6637 ft 262 kts 32°
2026-05-06 02:28 31.01726 121.93193 6520 ft 262 kts 32°
2026-05-06 02:29 31.03296 121.94265 6397 ft 262 kts 32°
2026-05-06 02:29 31.04867 121.95339 6270 ft 261 kts 32°
2026-05-06 02:29 31.06455 121.96359 6140 ft 261 kts 24°
2026-05-06 02:29 31.08207 121.96886 6033 ft 260 kts
2026-05-06 02:30 31.10005 121.96771 5904 ft 260 kts 347°
2026-05-06 02:30 31.11735 121.96150 5765 ft 260 kts 342°
2026-05-06 02:30 31.13453 121.95496 5636 ft 259 kts 342°
2026-05-06 02:30 31.15172 121.94849 5512 ft 259 kts 343°
2026-05-06 02:31 31.16886 121.94207 5387 ft 258 kts 342°
2026-05-06 02:31 31.18596 121.93567 5265 ft 257 kts 343°
2026-05-06 02:31 31.20299 121.92929 5140 ft 255 kts 343°
2026-05-06 02:31 31.21952 121.92308 5015 ft 251 kts 343°
2026-05-06 02:32 31.23616 121.91681 4895 ft 251 kts 343°
2026-05-06 02:32 31.25289 121.91048 4776 ft 253 kts 343°
2026-05-06 02:32 31.26966 121.90416 4634 ft 253 kts 343°
2026-05-06 02:32 31.28636 121.89787 4516 ft 252 kts 343°
2026-05-06 02:33 31.30304 121.89161 4390 ft 251 kts 343°
2026-05-06 02:33 31.31415 121.88745 4296 ft 244 kts 343°
2026-05-06 02:34 31.36634 121.86776 3883 ft 239 kts 342°
2026-05-06 02:34 31.38216 121.86181 3759 ft 239 kts 342°
2026-05-06 02:34 31.39793 121.85588 3636 ft 238 kts 342°
2026-05-06 02:34 31.41361 121.84998 3505 ft 235 kts 342°
2026-05-06 02:35 31.42911 121.84347 3382 ft 238 kts 329°
2026-05-06 02:35 31.44076 121.83043 3293 ft 230 kts 297°
2026-05-06 02:35 31.44493 121.81300 3159 ft 220 kts 265°
2026-05-06 02:35 31.44255 121.79567 3028 ft 211 kts 254°
2026-05-06 02:36 31.43947 121.77935 2914 ft 199 kts 255°
2026-05-06 02:36 31.43654 121.76388 2803 ft 192 kts 254°
2026-05-06 02:36 31.43369 121.74878 2674 ft 189 kts 254°
2026-05-06 02:36 31.43018 121.73419 2537 ft 182 kts 236°
2026-05-06 02:37 31.42164 121.72420 2419 ft 174 kts 204°
2026-05-06 02:37 31.40997 121.72261 2292 ft 173 kts 165°
2026-05-06 02:37 31.39849 121.72670 2174 ft 173 kts 165°
2026-05-06 02:37 31.38698 121.73060 2077 ft 171 kts 164°
2026-05-06 02:38 31.37567 121.73471 2004 ft 170 kts 163°
2026-05-06 02:38 31.36442 121.73891 2016 ft 171 kts 163°
2026-05-06 02:38 31.35306 121.74318 1994 ft 171 kts 163°
2026-05-06 02:38 31.34167 121.74750 2002 ft 173 kts 162°
2026-05-06 02:39 31.33042 121.75176 2001 ft 172 kts 162°
2026-05-06 02:39 31.31902 121.75608 2003 ft 172 kts 163°
2026-05-06 02:39 31.30762 121.76040 2011 ft 172 kts 163°
2026-05-06 02:39 31.29624 121.76471 2012 ft 171 kts 163°
2026-05-06 02:40 31.28500 121.76897 2006 ft 169 kts 163°
2026-05-06 02:40 31.27391 121.77316 2005 ft 167 kts 163°
2026-05-06 02:40 31.26286 121.77734 2000 ft 167 kts 163°
2026-05-06 02:40 31.25225 121.78136 1860 ft 156 kts 163°
2026-05-06 02:41 31.24218 121.78517 1693 ft 149 kts 164°
2026-05-06 02:41 31.23243 121.78885 1507 ft 147 kts 163°
2026-05-06 02:41 31.22278 121.79250 1316 ft 144 kts 163°
2026-05-06 02:41 31.21310 121.79616 1122 ft 148 kts 162°
2026-05-06 02:42 31.20342 121.79982 929 ft 145 kts 163°
2026-05-06 02:42 31.19389 121.80342 740 ft 144 kts 161°
2026-05-06 02:42 31.18411 121.80719 558 ft 149 kts 161°
2026-05-06 02:42 31.17415 121.81097 368 ft 150 kts 162°
2026-05-06 02:43 31.16427 121.81468 146 ft 149 kts 162°
2026-05-06 02:43 31.15452 121.81830 34 ft 143 kts 162°
2026-05-06 02:43 31.14641 121.82140 20 ft 94 kts 162°
2026-05-06 02:43 31.14189 121.82311 24 ft 50 kts 162°
2026-05-06 02:44 31.13873 121.82428 22 ft 45 kts 162°
2026-05-06 02:44 31.13637 121.82428 22 ft 29 kts 190°
2026-05-06 02:44 31.13555 121.82341 24 ft 16 kts 326°
2026-05-06 02:44 31.13658 121.82288 23 ft 15 kts 311°
2026-05-06 02:45 31.13649 121.82181 25 ft 14 kts 254°
2026-05-06 02:45 31.13617 121.82063 23 ft 20 kts 252°
2026-05-06 02:45 31.13565 121.81873 22 ft 26 kts 252°
2026-05-06 02:45 31.13512 121.81679 24 ft 25 kts 252°
2026-05-06 02:46 31.13481 121.81519 23 ft 14 kts 269°
2026-05-06 02:46 31.13482 121.81461 23 ft 5 kts 271°
2026-05-06 02:46 31.13482 121.81452 23 ft 0 kts 271°
2026-05-06 02:46 31.13482 121.81451 23 ft 0 kts 271°
2026-05-06 02:47 31.13482 121.81452 23 ft 0 kts 271°